[Date Prev][Date Next][Thread Prev][Thread Next] - [Date Index][Thread Index][Author Index]

2 Line ISS Keps 1-27



ISS
1 25544U 98067A   03027.48622685  .00025379  00000-0  31529-3 0  6281
2 25544  51.6361   6.9988 0005613  83.4147  46.7781 15.59809663239050


----
Via the sarex mailing list at AMSAT.ORG courtesy of AMSAT-NA.
To unsubscribe, send "unsubscribe sarex" to Majordomo@amsat.org



AMSAT Top AMSAT Home